User: anonymous   Login
Location: Unspecified
(0.0000°N, 0.0000°E)
Time: 00:59:59
(UTC+00:00)
Language:

KMS 4 - Orbit

View from above orbital plane
View from above orbital plane
View from above satellite
View from above satellite

Ground track
Ground track

The orbit data is extracted from the following two-line orbital elements,

1 41332U 16009A   21023.47576312  .00001901  00000-0  57472-4 0  9992
2 41332  97.3003  98.8540 0021869   7.1774 352.9779 15.35259543277474
Epoch (UTC): 23 January 2021 11:25:05
Eccentricity: 0.0021869
inclination: 97.3003°
perigee height: 445 km
apogee height: 475 km
right ascension of ascending node: 98.8540°
argument of perigee: 7.1774°
revolutions per day: 15.35259543
mean anomaly at epoch: 352.9779°
orbit number at epoch: 27747

The dashed part of the orbit path shows where the satellite is in the earth's shadow,  

DLR